This is the latest recevied weather packets stored in our database for station/object K1RFS. If no packets are shown the sender has not sent any weather packets the latest 10 day(s).
| Time | Temp. | Humidity | Pressure | Rain* | Wind** | Luminosity | Snow |
|---|---|---|---|---|---|---|---|
| 1778005446 | 12.78° C | 55% | 995.7 hPa | 0 mm | - | 378 W/m² | - |
| 1778005143 | 12.22° C | 57% | 995.6 hPa | 0 mm | - | 339 W/m² | - |
| 1778004840 | 11.67° C | 58% | 995.8 hPa | 0 mm | - | 367 W/m² | - |
| 1778004537 | 11.67° C | 59% | 995.6 hPa | 0 mm | - | 333 W/m² | - |
| 1778004233 | 11.11° C | 59% | 995.9 hPa | 0 mm | - | 229 W/m² | - |
| 1778003930 | 11.11° C | 60% | 995.9 hPa | 0 mm | - | 171 W/m² | - |
| 1778003626 | 11.11° C | 61% | 995.9 hPa | 0 mm | - | 156 W/m² | - |
| 1778003323 | 11.11° C | 61% | 996 hPa | 0 mm | - | 170 W/m² | - |
| 1778003020 | 11.11° C | 61% | 995.9 hPa | 0 mm | - | 168 W/m² | - |
| 1778002716 | 10.56° C | 62% | 995.8 hPa | 0 mm | - | 192 W/m² | - |
| 1778002413 | 10.56° C | 63% | 995.7 hPa | 0 mm | - | 151 W/m² | - |
| 1778002110 | 10.56° C | 63% | 995.9 hPa | 0 mm | - | 128 W/m² | - |
| 1778001808 | 10.56° C | 63% | 996 hPa | 0 mm | - | 169 W/m² | - |
| 1778001502 | 10.56° C | 64% | 995.9 hPa | 0 mm | - | 173 W/m² | - |
| 1778001199 | 10.56° C | 63% | 995.9 hPa | 0 mm | - | 175 W/m² | - |
| 1778000896 | 10.56° C | 64% | 995.8 hPa | 0 mm | - | 183 W/m² | - |
| 1778000593 | 10° C | 65% | 996 hPa | 0 mm | - | 179 W/m² | - |
| 1778000288 | 10° C | 66% | 996 hPa | 0 mm | - | 125 W/m² | - |
| 1777999984 | 10° C | 66% | 995.9 hPa | 0 mm | - | 108 W/m² | - |
| 1777999679 | 9.44° C | 67% | 996.1 hPa | 0 mm | - | 93 W/m² | - |
| 1777999377 | 9.44° C | 69% | 995.9 hPa | 0 mm | - | 90 W/m² | - |
| 1777999075 | 9.44° C | 70% | 995.7 hPa | 0 mm | - | 115 W/m² | - |
| 1777998773 | 9.44° C | 72% | 995.9 hPa | 0 mm | - | 126 W/m² | - |
| 1777998471 | 9.44° C | 73% | 995.9 hPa | 0 mm | - | 174 W/m² | - |
| 1777998167 | 9.44° C | 73% | 995.9 hPa | 0 mm | - | 139 W/m² | - |
* Rain latest hour (hover to see other rain measurements)
** Current wind speed in m/s (hover to see current wind gust speed)